Find Local Weather

World > North America > United States > Ohio

Cygnet, Ohio Regional Weather

Lat: 41.24N, Lon: 83.64W
Wx Zone: OHZ006
Feedback

Cygnet, OH Regional Weather

Expires:201905260100;;461214
ASUS41 KCLE 260012
RWRCLE
OHIO REGIONAL WEATHER ROUNDUP
NATIONAL WEATHER SERVICE WILMINGTON, OH
800 PM EDT SAT MAY 25 2019

NOTE: "FAIR" INDICATES FEW OR NO CLOUDS BELOW 12,000 FEET WITH NO
SIGNIFICANT WEATHER AND/OR OBSTRUCTIONS TO VISIBILITY.


OHZ001>008-015>018-024>027-034-035-043-044-260100-
   NORTHWEST OHIO
  
CITY           SKY/WX    TMP DP  RH WIND       PRES   REMARKS
DEFIANCE       FAIR      81  61  50 VRB7      29.97S                  
FINDLAY        FAIR      76  67  73 SW12      29.99R                  
TOLEDO EXPRESS FAIR      80  62  54 W16       29.96R                  
TOLEDO EXEC    FAIR      77  69  76 SW15      29.96R                  
LIMA           FAIR      74  66  76 SW10      30.02R                  
$$
 

SKY/WX - Weather  TMP - Temperature  DP - Dew Point  RH - Relative Humidity
WIND - Wind Direction/Speed PRES - Barometric Pressure VSB - Visibility
WCI - Wind Chill Index E13G22 Wind - East Wind 13 mph/Gusts of 22 mph